Torna al catalogo

COSMOS 1375 DEB

AttivoLEO
NORAD 17796·DEBRIS·🇷🇺 Russia

Lanciato Jun 6, 1982 da Plesetsk Cosmodrome

Loading…

Prossimi Passaggi (prossime 24 ore)

TLE

AggiornatoSource: Space-Track

Epoca: Sep 14, 2026, 13:52 UTC

1 17796U 82055AN  26257.57835921  .00000459  00000-0  30836-3 0  9993
2 17796  65.8189 178.5522 0049070 244.1957 175.8830 14.09682849744087

Traccia COSMOS 1375 DEB in tempo reale con AllMySat

Download on the App Store